User: anonymous   Login
Location: Prairie Dale
(45.6972°N, 104.5033°W)
Time: 03:15:09
(UTC+00:00)
Language:

METEOR 2-6 DEB - Orbit

View from above orbital plane
View from above orbital plane
View from above satellite
View from above satellite

Ground track
Ground track

The orbit data is extracted from the following two-line orbital elements,

1 43299U 80073T   22316.50376087  .00006420  00000-0  26640-2 0  9997
2 43299  81.2146 242.4876 0025704  95.4191 264.9922 14.26225251415836
Epoch (UTC): 12 November 2022 12:05:24
Eccentricity: 0.0025704
inclination: 81.2146°
perigee height: 786 km
apogee height: 823 km
right ascension of ascending node: 242.4876°
argument of perigee: 95.4191°
revolutions per day: 14.26225251
mean anomaly at epoch: 264.9922°
orbit number at epoch: 41583

The dashed part of the orbit path shows where the satellite is in the earth's shadow,  

DLR